Year,Month,Day,Hour,Minute,Value (Times are PST for temperature in C)
2014,11,15,00,00,3.90
2014,11,15,00,01,3.90
2014,11,15,00,02,3.90
2014,11,15,00,03,3.90
2014,11,15,00,04,3.90
2014,11,15,00,05,3.90
2014,11,15,00,06,3.80
2014,11,15,00,07,3.90
2014,11,15,00,08,3.80
2014,11,15,00,09,3.80
2014,11,15,00,10,3.80
2014,11,15,00,11,3.80
2014,11,15,00,12,3.80
2014,11,15,00,13,3.80
2014,11,15,00,14,3.80
2014,11,15,00,15,3.80
2014,11,15,00,16,3.80
2014,11,15,00,17,3.80
2014,11,15,00,18,3.70
2014,11,15,00,19,3.70
2014,11,15,00,20,3.70
2014,11,15,00,21,3.70
2014,11,15,00,22,3.70
2014,11,15,00,23,3.70
2014,11,15,00,24,3.70
2014,11,15,00,25,3.70
2014,11,15,00,26,3.70
2014,11,15,00,27,3.60
2014,11,15,00,28,3.60
2014,11,15,00,29,3.60
2014,11,15,00,30,3.60
2014,11,15,00,31,3.60
2014,11,15,00,32,3.60
2014,11,15,00,33,3.50
2014,11,15,00,34,3.50
2014,11,15,00,35,3.50
2014,11,15,00,36,3.40
2014,11,15,00,37,3.40
2014,11,15,00,38,3.40
2014,11,15,00,39,3.40
2014,11,15,00,40,3.30
2014,11,15,00,41,3.30
2014,11,15,00,42,3.30
2014,11,15,00,43,3.30
2014,11,15,00,44,3.30
2014,11,15,00,45,3.30
2014,11,15,00,46,3.30
2014,11,15,00,47,3.30
2014,11,15,00,48,3.30
2014,11,15,00,49,3.30
2014,11,15,00,50,3.30
2014,11,15,00,51,3.30
2014,11,15,00,52,3.20
2014,11,15,00,53,3.20
2014,11,15,00,54,3.20
2014,11,15,00,55,3.10
2014,11,15,00,56,3.10
2014,11,15,00,57,3.10
2014,11,15,00,58,3.10
2014,11,15,00,59,3.00
2014,11,15,01,00,3.00
2014,11,15,01,01,2.90
2014,11,15,01,02,2.80
2014,11,15,01,03,2.80
2014,11,15,01,04,2.70
2014,11,15,01,05,2.60
2014,11,15,01,06,2.60
2014,11,15,01,07,2.50
2014,11,15,01,08,2.50
2014,11,15,01,09,2.40
2014,11,15,01,10,2.40
2014,11,15,01,11,2.40
2014,11,15,01,12,2.40
2014,11,15,01,13,2.30
2014,11,15,01,14,2.30
2014,11,15,01,15,2.30
2014,11,15,01,16,2.30
2014,11,15,01,17,2.30
2014,11,15,01,18,2.20
2014,11,15,01,19,2.20
2014,11,15,01,20,2.10
2014,11,15,01,21,2.00
2014,11,15,01,22,1.90
2014,11,15,01,23,1.90
2014,11,15,01,24,1.80
2014,11,15,01,25,1.80
2014,11,15,01,26,1.80
2014,11,15,01,27,1.80
2014,11,15,01,28,1.80
2014,11,15,01,29,1.70
2014,11,15,01,30,1.70
2014,11,15,01,31,1.70
2014,11,15,01,32,1.60
2014,11,15,01,33,1.60
2014,11,15,01,34,1.60
2014,11,15,01,35,1.50
2014,11,15,01,36,1.50
2014,11,15,01,37,1.40
2014,11,15,01,38,1.40
2014,11,15,01,39,1.40
2014,11,15,01,40,1.30
2014,11,15,01,41,1.30
2014,11,15,01,42,1.30
2014,11,15,01,43,1.20
2014,11,15,01,44,1.20
2014,11,15,01,45,1.20
2014,11,15,01,46,1.20
2014,11,15,01,47,1.20
2014,11,15,01,48,1.20
2014,11,15,01,49,1.20
2014,11,15,01,50,1.20
2014,11,15,01,51,1.10
2014,11,15,01,52,1.10
2014,11,15,01,53,1.00
2014,11,15,01,54,1.00
2014,11,15,01,55,0.90
2014,11,15,01,56,0.80
2014,11,15,01,57,0.70
2014,11,15,01,58,0.70
2014,11,15,01,59,0.70
2014,11,15,02,00,0.60
2014,11,15,02,01,0.60
2014,11,15,02,02,0.50
2014,11,15,02,03,0.50
2014,11,15,02,04,0.40
2014,11,15,02,05,0.40
2014,11,15,02,06,0.30
2014,11,15,02,07,0.30
2014,11,15,02,08,0.20
2014,11,15,02,09,0.20
2014,11,15,02,10,0.20
2014,11,15,02,11,0.10
2014,11,15,02,12,0.10
2014,11,15,02,13,0.10
2014,11,15,02,14,0.10
2014,11,15,02,15,0.10
2014,11,15,02,16,0.10
2014,11,15,02,17,0.20
2014,11,15,02,18,0.30
2014,11,15,02,19,0.40
2014,11,15,02,20,0.40
2014,11,15,02,21,0.50
2014,11,15,02,22,0.70
2014,11,15,02,23,0.70
2014,11,15,02,24,0.90
2014,11,15,02,25,1.00
2014,11,15,02,26,1.10
2014,11,15,02,27,1.30
2014,11,15,02,28,1.40
2014,11,15,02,29,1.50
2014,11,15,02,30,1.50
2014,11,15,02,31,1.60
2014,11,15,02,32,1.60
2014,11,15,02,33,1.60
2014,11,15,02,34,1.60
2014,11,15,02,35,1.50
2014,11,15,02,36,1.50
2014,11,15,02,37,1.40
2014,11,15,02,38,1.30
2014,11,15,02,39,1.20
2014,11,15,02,40,1.10
2014,11,15,02,41,1.00
2014,11,15,02,42,0.90
2014,11,15,02,43,0.70
2014,11,15,02,44,0.60
2014,11,15,02,45,0.50
2014,11,15,02,46,0.40
2014,11,15,02,47,0.30
2014,11,15,02,48,0.30
2014,11,15,02,49,0.30
2014,11,15,02,50,0.20
2014,11,15,02,51,0.20
2014,11,15,02,52,0.20
2014,11,15,02,53,0.20
2014,11,15,02,54,0.20
2014,11,15,02,55,0.10
2014,11,15,02,56,0.10
2014,11,15,02,57,0.10
2014,11,15,02,58,0.10
2014,11,15,02,59,0.00
2014,11,15,03,00,0.00
2014,11,15,03,01,-0.10
2014,11,15,03,02,-0.10
2014,11,15,03,03,-0.20
2014,11,15,03,04,-0.20
2014,11,15,03,05,-0.20
2014,11,15,03,06,-0.20
2014,11,15,03,07,-0.30
2014,11,15,03,08,-0.30
2014,11,15,03,09,-0.30
2014,11,15,03,10,-0.40
2014,11,15,03,11,-0.40
2014,11,15,03,12,-0.50
2014,11,15,03,13,-0.50
2014,11,15,03,14,-0.60
2014,11,15,03,15,-0.60
2014,11,15,03,16,-0.70
2014,11,15,03,17,-0.70
2014,11,15,03,18,-0.70
2014,11,15,03,19,-0.70
2014,11,15,03,20,-0.70
2014,11,15,03,21,-0.70
2014,11,15,03,22,-0.80
2014,11,15,03,23,-0.80
2014,11,15,03,24,-0.80
2014,11,15,03,25,-0.80
2014,11,15,03,26,-0.80
2014,11,15,03,27,-0.80
2014,11,15,03,28,-0.80
2014,11,15,03,29,-0.80
2014,11,15,03,30,-0.80
2014,11,15,03,31,-0.70
2014,11,15,03,32,-0.70
2014,11,15,03,33,-0.70
2014,11,15,03,34,-0.70
2014,11,15,03,35,-0.70
2014,11,15,03,36,-0.70
2014,11,15,03,37,-0.70
2014,11,15,03,38,-0.70
2014,11,15,03,39,-0.70
2014,11,15,03,40,-0.80
2014,11,15,03,41,-0.80
2014,11,15,03,42,-0.80
2014,11,15,03,43,-0.90
2014,11,15,03,44,-0.90
2014,11,15,03,45,-0.90
2014,11,15,03,46,-1.00
2014,11,15,03,47,-1.00
2014,11,15,03,48,-1.10
2014,11,15,03,49,-1.10
2014,11,15,03,50,-1.20
2014,11,15,03,51,-1.20
2014,11,15,03,52,-1.30
2014,11,15,03,53,-1.30
2014,11,15,03,54,-1.30
2014,11,15,03,55,-1.30
2014,11,15,03,56,-1.40
2014,11,15,03,57,-1.40
2014,11,15,03,58,-1.40
2014,11,15,03,59,-1.40
2014,11,15,04,00,-1.40
2014,11,15,04,01,-1.40
2014,11,15,04,02,-1.40
2014,11,15,04,03,-1.40
2014,11,15,04,04,-1.40
2014,11,15,04,05,-1.40
2014,11,15,04,06,-1.50
2014,11,15,04,07,-1.50
2014,11,15,04,08,-1.50
2014,11,15,04,09,-1.50
2014,11,15,04,10,-1.50
2014,11,15,04,11,-1.60
2014,11,15,04,12,-1.60
2014,11,15,04,13,-1.60
2014,11,15,04,14,-1.60
2014,11,15,04,15,-1.60
2014,11,15,04,16,-1.60
2014,11,15,04,17,-1.60
2014,11,15,04,18,-1.60
2014,11,15,04,19,-1.60
2014,11,15,04,20,-1.70
2014,11,15,04,21,-1.70
2014,11,15,04,22,-1.70
2014,11,15,04,23,-1.70
2014,11,15,04,24,-1.70
2014,11,15,04,25,-1.70
2014,11,15,04,26,-1.70
2014,11,15,04,27,-1.70
2014,11,15,04,28,-1.70
2014,11,15,04,29,-1.70
2014,11,15,04,30,-1.70
2014,11,15,04,31,-1.70
2014,11,15,04,32,-1.70
2014,11,15,04,33,-1.70
2014,11,15,04,34,-1.70
2014,11,15,04,35,-1.80
2014,11,15,04,36,-1.80
2014,11,15,04,37,-1.80
2014,11,15,04,38,-1.80
2014,11,15,04,39,-1.80
2014,11,15,04,40,-1.80
2014,11,15,04,41,-1.80
2014,11,15,04,42,-1.80
2014,11,15,04,43,-1.80
2014,11,15,04,44,-1.80
2014,11,15,04,45,-1.80
2014,11,15,04,46,-1.90
2014,11,15,04,47,-1.90
2014,11,15,04,48,-1.90
2014,11,15,04,49,-1.90
2014,11,15,04,50,-1.90
2014,11,15,04,51,-1.90
2014,11,15,04,52,-1.90
2014,11,15,04,53,-1.90
2014,11,15,04,54,-2.00
2014,11,15,04,55,-2.00
2014,11,15,04,56,-2.00
2014,11,15,04,57,-2.00
2014,11,15,04,58,-2.00
2014,11,15,04,59,-2.00
2014,11,15,05,00,-2.00
2014,11,15,05,01,-2.00
2014,11,15,05,02,-2.10
2014,11,15,05,03,-2.10
2014,11,15,05,04,-2.10
2014,11,15,05,05,-2.10
2014,11,15,05,06,-2.10
2014,11,15,05,07,-2.10
2014,11,15,05,08,-2.10
2014,11,15,05,09,-2.20
2014,11,15,05,10,-2.20
2014,11,15,05,11,-2.20
2014,11,15,05,12,-2.20
2014,11,15,05,13,-2.20
2014,11,15,05,14,-2.20
2014,11,15,05,15,-2.30
2014,11,15,05,16,-2.30
2014,11,15,05,17,-2.30
2014,11,15,05,18,-2.30
2014,11,15,05,19,-2.30
2014,11,15,05,20,-2.30
2014,11,15,05,21,-2.40
2014,11,15,05,22,-2.40
2014,11,15,05,23,-2.50
2014,11,15,05,24,-2.50
2014,11,15,05,25,-2.50
2014,11,15,05,26,-2.50
2014,11,15,05,27,-2.50
2014,11,15,05,28,-2.50
2014,11,15,05,29,-2.50
2014,11,15,05,30,-2.40
2014,11,15,05,31,-2.40
2014,11,15,05,32,-2.30
2014,11,15,05,33,-2.30
2014,11,15,05,34,-2.20
2014,11,15,05,35,-2.10
2014,11,15,05,36,-2.10
2014,11,15,05,37,-2.00
2014,11,15,05,38,-2.00
2014,11,15,05,39,-1.90
2014,11,15,05,40,-1.80
2014,11,15,05,41,-1.80
2014,11,15,05,42,-1.80
2014,11,15,05,43,-1.80
2014,11,15,05,44,-1.80
2014,11,15,05,45,-1.80
2014,11,15,05,46,-1.80
2014,11,15,05,47,-1.80
2014,11,15,05,48,-1.80
2014,11,15,05,49,-1.80
2014,11,15,05,50,-1.80
2014,11,15,05,51,-1.80
2014,11,15,05,52,-1.80
2014,11,15,05,53,-1.80
2014,11,15,05,54,-1.80
2014,11,15,05,55,-1.90
2014,11,15,05,56,-1.90
2014,11,15,05,57,-1.90
2014,11,15,05,58,-1.90
2014,11,15,05,59,-1.90
2014,11,15,06,00,-1.90
2014,11,15,06,01,-1.90
2014,11,15,06,02,-1.90
2014,11,15,06,03,-1.90
2014,11,15,06,04,-1.90
2014,11,15,06,05,-1.90
2014,11,15,06,06,-2.00
2014,11,15,06,07,-2.00
2014,11,15,06,08,-2.00
2014,11,15,06,09,-2.00
2014,11,15,06,10,-2.00
2014,11,15,06,11,-2.10
2014,11,15,06,12,-2.10
2014,11,15,06,13,-2.10
2014,11,15,06,14,-2.10
2014,11,15,06,15,-2.10
2014,11,15,06,16,-2.10
2014,11,15,06,17,-2.10
2014,11,15,06,18,-2.10
2014,11,15,06,19,-2.10
2014,11,15,06,20,-2.20
2014,11,15,06,21,-2.20
2014,11,15,06,22,-2.20
2014,11,15,06,23,-2.20
2014,11,15,06,24,-2.20
2014,11,15,06,25,-2.20
2014,11,15,06,26,-2.20
2014,11,15,06,27,-2.20
2014,11,15,06,28,-2.20
2014,11,15,06,29,-2.20
2014,11,15,06,30,-2.20
2014,11,15,06,31,-2.20
2014,11,15,07,55,-2.60
2014,11,15,07,56,-2.60
2014,11,15,07,57,-2.50
2014,11,15,07,58,-2.50
2014,11,15,07,59,-2.40
2014,11,15,08,00,-2.40
2014,11,15,08,01,-2.30
2014,11,15,08,02,-2.30
2014,11,15,08,03,-2.30
2014,11,15,08,04,-2.20
2014,11,15,08,05,-2.10
2014,11,15,08,06,-2.10
2014,11,15,08,07,-2.00
2014,11,15,08,08,-2.00
2014,11,15,08,09,-1.90
2014,11,15,08,10,-1.80
2014,11,15,08,11,-1.70
2014,11,15,08,12,-1.50
2014,11,15,08,13,-1.40
2014,11,15,08,14,-1.20
2014,11,15,08,15,-1.10
2014,11,15,08,16,-0.90
2014,11,15,08,17,-0.70
2014,11,15,08,18,-0.50
2014,11,15,08,19,-0.30
2014,11,15,08,20,-0.10
2014,11,15,08,21,0.00
2014,11,15,08,22,0.20
2014,11,15,08,23,0.40
2014,11,15,08,24,0.50
2014,11,15,08,25,0.80
2014,11,15,08,26,1.00
2014,11,15,08,27,1.20
2014,11,15,08,28,1.40
2014,11,15,08,29,1.50
2014,11,15,08,30,1.80
2014,11,15,08,31,2.00
2014,11,15,08,32,2.10
2014,11,15,08,33,2.30
2014,11,15,08,34,2.40
2014,11,15,08,35,2.50
2014,11,15,08,36,2.60
2014,11,15,08,37,2.80
2014,11,15,08,38,2.90
2014,11,15,08,39,2.90
2014,11,15,08,40,3.00
2014,11,15,08,41,3.10
2014,11,15,08,42,3.20
2014,11,15,08,43,3.20
2014,11,15,08,44,3.30
2014,11,15,08,45,3.30
2014,11,15,08,46,3.40
2014,11,15,08,47,3.40
2014,11,15,08,48,3.40
2014,11,15,08,49,3.40
2014,11,15,08,50,3.50
2014,11,15,08,51,3.50
2014,11,15,08,52,3.60
2014,11,15,08,53,3.60
2014,11,15,08,54,3.60
2014,11,15,08,55,3.70
2014,11,15,08,56,3.70
2014,11,15,08,57,3.70
2014,11,15,08,58,3.70
2014,11,15,08,59,3.70
2014,11,15,09,00,3.70
2014,11,15,09,01,3.80
2014,11,15,09,02,3.80
2014,11,15,09,03,3.80
2014,11,15,09,04,3.80
2014,11,15,09,05,3.80
2014,11,15,09,06,3.90
2014,11,15,09,07,3.90
2014,11,15,09,08,3.90
2014,11,15,09,09,4.00
2014,11,15,09,10,4.00
2014,11,15,09,11,4.10
2014,11,15,09,12,4.10
2014,11,15,09,13,4.10
2014,11,15,09,14,4.10
2014,11,15,09,15,4.20
2014,11,15,09,16,4.20
2014,11,15,09,17,4.20
2014,11,15,09,18,4.20
2014,11,15,09,19,4.20
2014,11,15,09,20,4.30
2014,11,15,09,21,4.30
2014,11,15,09,22,4.30
2014,11,15,09,23,4.30
2014,11,15,09,24,4.30
2014,11,15,09,25,4.40
2014,11,15,09,26,4.40
2014,11,15,09,27,4.40
2014,11,15,09,28,4.40
2014,11,15,09,29,4.50
2014,11,15,09,30,4.50
2014,11,15,09,31,4.60
2014,11,15,09,32,4.60
2014,11,15,09,33,4.60
2014,11,15,09,34,4.60
2014,11,15,09,35,4.70
2014,11,15,09,36,4.70
2014,11,15,09,37,4.70
2014,11,15,09,38,4.80
2014,11,15,09,39,4.80
2014,11,15,09,40,4.90
2014,11,15,09,41,4.90
2014,11,15,09,42,5.00
2014,11,15,09,43,5.00
2014,11,15,09,44,5.10
2014,11,15,09,45,5.10
2014,11,15,09,46,5.10
2014,11,15,09,47,5.10
2014,11,15,09,48,5.20
2014,11,15,09,49,5.20
2014,11,15,09,50,5.20
2014,11,15,09,51,5.20
2014,11,15,09,52,5.20
2014,11,15,09,53,5.20
2014,11,15,09,54,5.20
2014,11,15,09,55,5.20
2014,11,15,09,56,5.10
2014,11,15,09,57,5.00
2014,11,15,09,58,5.00
2014,11,15,09,59,5.00
2014,11,15,10,00,5.00
2014,11,15,10,01,5.00
2014,11,15,10,02,5.00
2014,11,15,10,03,5.10
2014,11,15,10,04,5.10
2014,11,15,10,05,5.20
2014,11,15,10,06,5.20
2014,11,15,10,07,5.20
2014,11,15,10,08,5.20
2014,11,15,10,09,5.20
2014,11,15,10,10,5.20
2014,11,15,10,11,5.20
2014,11,15,10,12,5.20
2014,11,15,10,13,5.20
2014,11,15,10,14,5.20
2014,11,15,10,15,5.20
2014,11,15,10,16,5.20
2014,11,15,10,17,5.20
2014,11,15,10,18,5.10
2014,11,15,10,19,5.10
2014,11,15,10,20,5.10
2014,11,15,10,21,5.10
2014,11,15,10,22,5.20
2014,11,15,10,23,5.20
2014,11,15,10,24,5.20
2014,11,15,10,25,5.20
2014,11,15,10,26,5.30
2014,11,15,10,27,5.30
2014,11,15,10,28,5.30
2014,11,15,10,29,5.30
2014,11,15,10,30,5.30
2014,11,15,10,31,5.30
2014,11,15,10,32,5.30
2014,11,15,10,33,5.30
2014,11,15,10,34,5.30
2014,11,15,10,35,5.30
2014,11,15,10,36,5.30
2014,11,15,10,37,5.30
2014,11,15,10,38,5.30
2014,11,15,10,39,5.30
2014,11,15,10,40,5.30
2014,11,15,10,41,5.30
2014,11,15,10,42,5.30
2014,11,15,10,43,5.30
2014,11,15,10,44,5.40
2014,11,15,10,45,5.40
2014,11,15,10,46,5.40
2014,11,15,10,47,5.50
2014,11,15,10,48,5.60
2014,11,15,10,49,5.60
2014,11,15,10,50,5.70
2014,11,15,10,51,5.80
2014,11,15,10,52,5.90
2014,11,15,10,53,6.00
2014,11,15,10,54,6.00
2014,11,15,10,55,6.00
2014,11,15,10,56,6.00
2014,11,15,10,57,5.90
2014,11,15,10,58,5.90
2014,11,15,10,59,5.90
2014,11,15,11,00,5.90
2014,11,15,11,01,5.90
2014,11,15,11,02,5.90
2014,11,15,11,03,6.00
2014,11,15,11,04,6.00
2014,11,15,11,05,6.00
2014,11,15,11,06,5.90
2014,11,15,11,07,5.90
2014,11,15,11,08,5.80
2014,11,15,11,09,5.80
2014,11,15,11,10,5.80
2014,11,15,11,11,5.80
2014,11,15,11,12,5.80
2014,11,15,11,13,5.90
2014,11,15,11,14,6.00
2014,11,15,11,15,6.10
2014,11,15,11,16,6.30
2014,11,15,11,17,6.40
2014,11,15,11,18,6.40
2014,11,15,11,19,6.50
2014,11,15,11,20,6.50
2014,11,15,11,21,6.50
2014,11,15,11,22,6.50
2014,11,15,11,23,6.40
2014,11,15,11,24,6.30
2014,11,15,11,25,6.30
2014,11,15,11,26,6.20
2014,11,15,11,27,6.20
2014,11,15,11,28,6.20
2014,11,15,11,29,6.20
2014,11,15,11,30,6.20
2014,11,15,11,31,6.20
2014,11,15,11,32,6.30
2014,11,15,11,33,6.30
2014,11,15,11,34,6.30
2014,11,15,11,35,6.40
2014,11,15,11,36,6.40
2014,11,15,11,37,6.40
2014,11,15,11,38,6.30
2014,11,15,11,39,6.30
2014,11,15,11,40,6.20
2014,11,15,11,41,6.20
2014,11,15,11,42,6.20
2014,11,15,11,43,6.20
2014,11,15,11,44,6.20
2014,11,15,11,45,6.30
2014,11,15,11,46,6.30
2014,11,15,11,47,6.30
2014,11,15,11,48,6.30
2014,11,15,11,49,6.30
2014,11,15,11,50,6.40
2014,11,15,11,51,6.50
2014,11,15,11,52,6.60
2014,11,15,11,53,6.80
2014,11,15,11,54,6.90
2014,11,15,11,55,6.90
2014,11,15,11,56,7.00
2014,11,15,11,57,7.10
2014,11,15,11,58,7.10
2014,11,15,11,59,7.10
2014,11,15,12,00,7.20
2014,11,15,12,01,7.20
2014,11,15,12,02,7.20
2014,11,15,12,03,7.20
2014,11,15,12,04,7.10
2014,11,15,12,05,7.10
2014,11,15,12,06,7.10
2014,11,15,12,07,7.20
2014,11,15,12,08,7.20
2014,11,15,12,09,7.30
2014,11,15,12,10,7.30
2014,11,15,12,11,7.30
2014,11,15,12,12,7.30
2014,11,15,12,13,7.30
2014,11,15,12,14,7.30
2014,11,15,12,15,7.30
2014,11,15,12,16,7.30
2014,11,15,12,17,7.30
2014,11,15,12,18,7.30
2014,11,15,12,19,7.30
2014,11,15,12,20,7.30
2014,11,15,12,21,7.30
2014,11,15,12,22,7.30
2014,11,15,12,23,7.30
2014,11,15,12,24,7.30
2014,11,15,12,25,7.30
2014,11,15,12,26,7.30
2014,11,15,12,27,7.30
2014,11,15,12,28,7.20
2014,11,15,12,29,7.20
2014,11,15,12,30,7.20
2014,11,15,12,31,7.20
2014,11,15,12,32,7.20
2014,11,15,12,33,7.20
2014,11,15,12,34,7.20
2014,11,15,12,35,7.20
2014,11,15,12,36,7.20
2014,11,15,12,37,7.10
2014,11,15,12,38,7.20
2014,11,15,12,39,7.20
2014,11,15,12,40,7.20
2014,11,15,12,41,7.20
2014,11,15,12,42,7.20
2014,11,15,12,43,7.20
2014,11,15,12,44,7.30
2014,11,15,12,45,7.30
2014,11,15,12,46,7.30
2014,11,15,12,47,7.30
2014,11,15,12,48,7.30
2014,11,15,12,49,7.30
2014,11,15,12,50,7.20
2014,11,15,12,51,7.30
2014,11,15,12,52,7.30
2014,11,15,12,53,7.30
2014,11,15,12,54,7.30
2014,11,15,12,55,7.30
2014,11,15,12,56,7.20
2014,11,15,12,57,7.20
2014,11,15,12,58,7.20
2014,11,15,12,59,7.20
2014,11,15,13,00,7.20
2014,11,15,13,01,7.30
2014,11,15,13,02,7.40
2014,11,15,13,03,7.50
2014,11,15,13,04,7.50
2014,11,15,13,05,7.50
2014,11,15,13,06,7.50
2014,11,15,13,07,7.50
2014,11,15,13,08,7.50
2014,11,15,13,09,7.50
2014,11,15,13,10,7.50
2014,11,15,13,11,7.60
2014,11,15,13,12,7.60
2014,11,15,13,13,7.60
2014,11,15,13,14,7.50
2014,11,15,13,15,7.50
2014,11,15,13,16,7.40
2014,11,15,13,17,7.40
2014,11,15,13,18,7.30
2014,11,15,13,19,7.30
2014,11,15,13,20,7.30
2014,11,15,13,21,7.20
2014,11,15,13,22,7.20
2014,11,15,13,23,7.20
2014,11,15,13,24,7.10
2014,11,15,13,25,7.10
2014,11,15,13,26,7.10
2014,11,15,13,27,7.10
2014,11,15,13,28,7.10
2014,11,15,13,29,7.20
2014,11,15,13,30,7.20
2014,11,15,13,31,7.20
2014,11,15,13,32,7.20
2014,11,15,13,33,7.20
2014,11,15,13,34,7.30
2014,11,15,13,35,7.30
2014,11,15,13,36,7.30
2014,11,15,13,37,7.40
2014,11,15,13,38,7.40
2014,11,15,13,39,7.50
2014,11,15,13,40,7.50
2014,11,15,13,41,7.50
2014,11,15,13,42,7.50
2014,11,15,13,43,7.40
2014,11,15,13,44,7.40
2014,11,15,13,45,7.40
2014,11,15,13,46,7.40
2014,11,15,13,47,7.30
2014,11,15,13,48,7.40
2014,11,15,13,49,7.40
2014,11,15,13,50,7.40
2014,11,15,13,51,7.30
2014,11,15,13,52,7.30
2014,11,15,13,53,7.30
2014,11,15,13,54,7.30
2014,11,15,13,55,7.30
2014,11,15,13,56,7.40
2014,11,15,13,57,7.40
2014,11,15,13,58,7.40
2014,11,15,13,59,7.40
2014,11,15,14,00,7.30
2014,11,15,14,01,7.30
2014,11,15,14,02,7.30
2014,11,15,14,03,7.20
2014,11,15,14,04,7.20
2014,11,15,14,05,7.10
2014,11,15,14,06,7.10
2014,11,15,14,07,7.10
2014,11,15,14,08,7.10
2014,11,15,14,09,7.00
2014,11,15,14,10,7.00
2014,11,15,14,11,6.90
2014,11,15,14,12,6.90
2014,11,15,14,13,6.80
2014,11,15,14,14,6.80
2014,11,15,14,15,6.80
2014,11,15,14,16,6.80
2014,11,15,14,17,6.80
2014,11,15,14,18,6.80
2014,11,15,14,19,6.80
2014,11,15,14,20,6.80
2014,11,15,14,21,6.80
2014,11,15,14,22,6.80
2014,11,15,14,23,6.80
2014,11,15,14,24,6.80
2014,11,15,14,25,6.80
2014,11,15,14,26,6.80
2014,11,15,14,27,6.90
2014,11,15,14,28,6.90
2014,11,15,14,29,6.90
2014,11,15,14,30,6.90
2014,11,15,14,31,6.90
2014,11,15,14,32,6.90
2014,11,15,14,33,7.00
2014,11,15,14,34,7.00
2014,11,15,14,35,7.00
2014,11,15,14,36,7.00
2014,11,15,14,37,7.00
2014,11,15,14,38,7.00
2014,11,15,14,39,7.00
2014,11,15,14,40,7.00
2014,11,15,14,41,7.00
2014,11,15,14,42,6.90
2014,11,15,14,43,6.90
2014,11,15,14,44,6.90
2014,11,15,14,45,6.90
2014,11,15,14,46,6.90
2014,11,15,14,47,6.80
2014,11,15,14,48,6.80
2014,11,15,14,49,6.80
2014,11,15,14,50,6.80
2014,11,15,14,51,6.80
2014,11,15,14,52,6.90
2014,11,15,14,53,6.90
2014,11,15,14,54,7.00
2014,11,15,14,55,7.00
2014,11,15,14,56,7.10
2014,11,15,14,57,7.10
2014,11,15,14,58,7.10
2014,11,15,14,59,7.10
2014,11,15,15,00,7.00
2014,11,15,15,01,7.00
2014,11,15,15,02,7.00
2014,11,15,15,03,7.00
2014,11,15,15,04,6.90
2014,11,15,15,05,6.90
2014,11,15,15,06,6.90
2014,11,15,15,07,6.90
2014,11,15,15,08,6.90
2014,11,15,15,09,6.90
2014,11,15,15,10,6.90
2014,11,15,15,11,6.90
2014,11,15,15,12,6.90
2014,11,15,15,13,6.80
2014,11,15,15,14,6.80
2014,11,15,15,15,6.80
2014,11,15,15,16,6.80
2014,11,15,15,17,6.80
2014,11,15,15,18,6.70
2014,11,15,15,19,6.70
2014,11,15,15,20,6.70
2014,11,15,15,21,6.70
2014,11,15,15,22,6.70
2014,11,15,15,23,6.70
2014,11,15,15,24,6.60
2014,11,15,15,25,6.60
2014,11,15,15,26,6.60
2014,11,15,15,27,6.60
2014,11,15,15,28,6.60
2014,11,15,15,29,6.60
2014,11,15,15,30,6.50
2014,11,15,15,31,6.50
2014,11,15,15,32,6.50
2014,11,15,15,33,6.50
2014,11,15,15,34,6.40
2014,11,15,15,35,6.40
2014,11,15,15,36,6.40
2014,11,15,15,37,6.40
2014,11,15,15,38,6.30
2014,11,15,15,39,6.30
2014,11,15,15,40,6.30
2014,11,15,15,41,6.30
2014,11,15,15,42,6.30
2014,11,15,15,43,6.30
2014,11,15,15,44,6.30
2014,11,15,15,45,6.30
2014,11,15,15,46,6.30
2014,11,15,15,47,6.30
2014,11,15,15,48,6.30
2014,11,15,15,49,6.30
2014,11,15,15,50,6.20
2014,11,15,15,51,6.20
2014,11,15,15,52,6.20
2014,11,15,15,53,6.20
2014,11,15,15,54,6.10
2014,11,15,15,55,6.10
2014,11,15,15,56,6.10
2014,11,15,15,57,6.10
2014,11,15,15,58,6.00
2014,11,15,15,59,6.00
2014,11,15,16,00,5.90
2014,11,15,16,01,5.90
2014,11,15,16,02,5.90
2014,11,15,16,03,5.90
2014,11,15,16,04,5.90
2014,11,15,16,05,5.80
2014,11,15,16,06,5.80
2014,11,15,16,07,5.80
2014,11,15,16,08,5.80
2014,11,15,16,09,5.80
2014,11,15,16,10,5.80
2014,11,15,16,11,5.70
2014,11,15,16,12,5.70
2014,11,15,16,13,5.70
2014,11,15,16,14,5.70
2014,11,15,16,15,5.70
2014,11,15,16,16,5.70
2014,11,15,16,17,5.60
2014,11,15,16,18,5.60
2014,11,15,16,19,5.60
2014,11,15,16,20,5.50
2014,11,15,16,21,5.50
2014,11,15,16,22,5.50
2014,11,15,16,23,5.40
2014,11,15,16,24,5.40
2014,11,15,16,25,5.40
2014,11,15,16,26,5.30
2014,11,15,16,27,5.30
2014,11,15,16,28,5.30
2014,11,15,16,29,5.20
2014,11,15,16,30,5.20
2014,11,15,16,31,5.20
2014,11,15,16,32,5.20
2014,11,15,16,33,5.10
2014,11,15,16,34,5.10
2014,11,15,16,35,5.10
2014,11,15,16,36,5.10
2014,11,15,16,37,5.00
2014,11,15,16,38,5.00
2014,11,15,16,39,5.00
2014,11,15,16,40,4.90
2014,11,15,16,41,4.90
2014,11,15,16,42,4.90
2014,11,15,16,43,4.80
2014,11,15,16,44,4.80
2014,11,15,16,45,4.80
2014,11,15,16,46,4.80
2014,11,15,16,47,4.80
2014,11,15,16,48,4.80
2014,11,15,16,49,4.70
2014,11,15,16,50,4.70
2014,11,15,16,51,4.70
2014,11,15,16,52,4.70
2014,11,15,16,53,4.70
2014,11,15,16,54,4.70
2014,11,15,16,55,4.70
2014,11,15,16,56,4.70
2014,11,15,16,57,4.70
2014,11,15,16,58,4.70
2014,11,15,16,59,4.70
2014,11,15,17,00,4.60
2014,11,15,17,01,4.60
2014,11,15,17,02,4.60
2014,11,15,17,03,4.50
2014,11,15,17,04,4.50
2014,11,15,17,05,4.50
2014,11,15,17,06,4.40
2014,11,15,17,07,4.40
2014,11,15,17,08,4.40
2014,11,15,17,09,4.40
2014,11,15,17,10,4.30
2014,11,15,17,11,4.30
2014,11,15,17,12,4.30
2014,11,15,17,13,4.20
2014,11,15,17,14,4.20
2014,11,15,17,15,4.10
2014,11,15,17,16,4.10
2014,11,15,17,17,4.10
2014,11,15,17,18,4.00
2014,11,15,17,19,4.00
2014,11,15,17,20,3.90
2014,11,15,17,21,3.90
2014,11,15,17,22,3.80
2014,11,15,17,23,3.80
2014,11,15,17,24,3.80
2014,11,15,17,25,3.70
2014,11,15,17,26,3.70
2014,11,15,17,27,3.70
2014,11,15,17,28,3.60
2014,11,15,17,29,3.60
2014,11,15,17,30,3.50
2014,11,15,17,31,3.50
2014,11,15,17,32,3.40
2014,11,15,17,33,3.40
2014,11,15,17,34,3.30
2014,11,15,17,35,3.30
2014,11,15,17,36,3.30
2014,11,15,17,37,3.20
2014,11,15,17,38,3.20
2014,11,15,17,39,3.10
2014,11,15,17,40,3.10
2014,11,15,17,41,3.10
2014,11,15,17,42,3.00
2014,11,15,17,43,3.00
2014,11,15,17,44,3.00
2014,11,15,17,45,2.90
2014,11,15,17,46,2.90
2014,11,15,17,47,2.90
2014,11,15,17,48,2.80
2014,11,15,17,49,2.80
2014,11,15,17,50,2.70
2014,11,15,17,51,2.70
2014,11,15,17,52,2.60
2014,11,15,17,53,2.60
2014,11,15,17,54,2.60
2014,11,15,17,55,2.50
2014,11,15,17,56,2.50
2014,11,15,17,57,2.40
2014,11,15,17,58,2.40
2014,11,15,17,59,2.40
2014,11,15,18,00,2.30
2014,11,15,18,01,2.30
2014,11,15,18,02,2.30
2014,11,15,18,03,2.20
2014,11,15,18,04,2.20
2014,11,15,18,05,2.10
2014,11,15,18,06,2.10
2014,11,15,18,07,2.00
2014,11,15,18,08,2.00
2014,11,15,18,09,1.90
2014,11,15,18,10,1.90
2014,11,15,18,11,1.80
2014,11,15,18,12,1.80
2014,11,15,18,13,1.80
2014,11,15,18,14,1.80
2014,11,15,18,15,1.70
2014,11,15,18,16,1.70
2014,11,15,18,17,1.70
2014,11,15,18,18,1.70
2014,11,15,18,19,1.60
2014,11,15,18,20,1.60
2014,11,15,18,21,1.60
2014,11,15,18,22,1.60
2014,11,15,18,23,1.60
2014,11,15,18,24,1.60
2014,11,15,18,25,1.60
2014,11,15,18,26,1.60
2014,11,15,18,27,1.60
2014,11,15,18,28,1.50
2014,11,15,18,29,1.50
2014,11,15,18,30,1.50
2014,11,15,18,31,1.40
2014,11,15,18,32,1.40
2014,11,15,18,33,1.40
2014,11,15,18,34,1.40
2014,11,15,18,35,1.40
2014,11,15,18,36,1.40
2014,11,15,18,37,1.40
2014,11,15,18,38,1.40
2014,11,15,18,39,1.40
2014,11,15,18,40,1.40
2014,11,15,18,41,1.40
2014,11,15,18,42,1.40
2014,11,15,18,43,1.40
2014,11,15,18,44,1.40
2014,11,15,18,45,1.40
2014,11,15,18,46,1.30
2014,11,15,18,47,1.30
2014,11,15,18,48,1.30
2014,11,15,18,49,1.30
2014,11,15,18,50,1.30
2014,11,15,18,51,1.30
2014,11,15,18,52,1.30
2014,11,15,18,53,1.30
2014,11,15,18,54,1.20
2014,11,15,18,55,1.20
2014,11,15,18,56,1.20
2014,11,15,18,57,1.20
2014,11,15,18,58,1.20
2014,11,15,18,59,1.20
2014,11,15,19,00,1.20
2014,11,15,19,01,1.10
2014,11,15,19,02,1.10
2014,11,15,19,03,1.10
2014,11,15,19,04,1.00
2014,11,15,19,05,0.90
2014,11,15,19,06,0.80
2014,11,15,19,07,0.80
2014,11,15,19,08,0.80
2014,11,15,19,09,0.80
2014,11,15,19,10,0.70
2014,11,15,19,11,0.70
2014,11,15,19,12,0.80
2014,11,15,19,13,0.80
2014,11,15,19,14,0.70
2014,11,15,19,15,0.70
2014,11,15,19,16,0.70
2014,11,15,19,17,0.70
2014,11,15,19,18,0.70